Location: Molino di Ancona
(43.6167°N, 13.3667°E)
Time: 02:53:15
(UTC+00:00)

EP 1 - Pass Details

Date: 15 December 2019
Orbit: 314 x 1668 km, 63.3° (Epoch: 25 August)

Event Time Altitude Azimuth Distance (km) Brightness Sun altitude
Rises 05:47:48 0° 214° (SW) 2,421 8.5 -8.0°
Reaches altitude 10° 05:50:04 10° 214° (SW) 1,422 7.4 -7.6°
Maximum altitude 05:53:05 84° 125° (SE) 350 4.4 -7.1°
Drops below altitude 10° 05:55:41 10° 38° (NE) 1,235 7.3 -6.7°
Sets 05:57:32 0° 38° (NE) 2,056 8.4 -6.4°
